TimeEDT,TemperatureF,Dew PointF,Humidity,Sea Level PressureIn,VisibilityMPH,Wind Direction,Wind SpeedMPH,Gust SpeedMPH,PrecipitationIn,Events,Conditions,WindDirDegrees,DateUTC
12:54 AM,61.0,55.9,83,30.12,10.0,Calm,Calm,-,N/A,,Clear,0,2013-08-05 04:54:00
1:54 AM,62.1,55.9,80,30.11,10.0,ENE,3.5,-,N/A,,Clear,60,2013-08-05 05:54:00
2:54 AM,59.0,55.9,90,30.10,10.0,Calm,Calm,-,N/A,,Clear,0,2013-08-05 06:54:00
3:54 AM,59.0,55.9,90,30.10,10.0,Calm,Calm,-,N/A,,Clear,0,2013-08-05 07:54:00
4:54 AM,59.0,54.0,83,30.09,10.0,Calm,Calm,-,N/A,,Clear,0,2013-08-05 08:54:00
5:54 AM,60.1,53.1,78,30.10,10.0,East,4.6,-,N/A,,Clear,80,2013-08-05 09:54:00
6:54 AM,57.9,53.1,84,30.10,10.0,Calm,Calm,-,N/A,,Clear,0,2013-08-05 10:54:00
7:24 AM,57.9,54.0,87,30.12,10.0,Calm,Calm,-,N/A,,Partly Cloudy,0,2013-08-05 11:24:00
7:54 AM,60.1,55.0,83,30.11,10.0,Calm,Calm,-,0.00,,Clear,0,2013-08-05 11:54:00
8:54 AM,68.0,57.0,68,30.11,10.0,ESE,3.5,-,N/A,,Clear,110,2013-08-05 12:54:00
9:54 AM,72.0,57.0,59,30.11,10.0,SSE,3.5,-,0.00,,Clear,160,2013-08-05 13:54:00
10:54 AM,73.9,55.0,52,30.11,10.0,Variable,3.5,-,N/A,,Clear,0,2013-08-05 14:54:00
11:54 AM,75.9,55.0,48,30.09,10.0,ESE,6.9,-,0.00,Rain,Light Rain,120,2013-08-05 15:54:00
12:54 PM,78.1,54.0,43,30.07,10.0,ESE,8.1,-,0.00,,Partly Cloudy,110,2013-08-05 16:54:00
1:54 PM,79.0,53.1,40,30.06,10.0,North,-9999.0,-,N/A,,Clear,0,2013-08-05 17:54:00
2:54 PM,80.1,54.0,40,30.05,10.0,Calm,Calm,-,N/A,,Clear,0,2013-08-05 18:54:00
3:54 PM,82.0,54.0,38,30.03,10.0,Calm,Calm,-,N/A,,Scattered Clouds,0,2013-08-05 19:54:00
4:54 PM,81.0,55.9,42,30.03,10.0,NNW,9.2,-,N/A,,Mostly Cloudy,330,2013-08-05 20:54:00
5:54 PM,79.0,55.0,44,30.02,10.0,Calm,Calm,-,N/A,,Clear,0,2013-08-05 21:54:00
6:54 PM,79.0,57.0,47,30.00,10.0,NE,5.8,-,N/A,,Scattered Clouds,50,2013-08-05 22:54:00
7:54 PM,77.0,57.0,50,29.98,10.0,ENE,5.8,-,N/A,,Clear,70,2013-08-05 23:54:00
8:54 PM,75.0,57.0,53,29.97,10.0,Calm,Calm,-,N/A,,Partly Cloudy,0,2013-08-06 00:54:00
9:54 PM,73.0,59.0,61,29.97,10.0,Calm,Calm,-,N/A,,Overcast,0,2013-08-06 01:54:00
10:54 PM,71.1,61.0,70,29.99,10.0,Calm,Calm,-,N/A,,Overcast,0,2013-08-06 02:54:00
11:54 PM,70.0,63.0,78,29.99,10.0,Calm,Calm,-,N/A,,Overcast,0,2013-08-06 03:54:00